• în România
  • Lista ţărilor
  • Pe 7 zile
  • Temperatura apei
  • Hartă satelitară
  • Meteo pe hartă
  • Widget-uri
  • user-avatar
    Intrare

    Meteo pe oră la Krivopavlovka

    Astăzi, 24 Iunie, Duminică

    Timp Temperatura Precipitaţii Vânt Presiune Umiditate
    00:00 +22°C° 0 mm 1 m/s 755 mmHg 63%
    01:00 +22°C° 0 mm 1 m/s 755 mmHg 64%
    02:00 +21°C° 0 mm 1 m/s 756 mmHg 65%
    03:00 +20°C° 0 mm 2 m/s 755 mmHg 64%
    04:00 +21°C° 0 mm 2 m/s 755 mmHg 64%
    05:00 +21°C° 0 mm 2 m/s 756 mmHg 65%
    06:00 +23°C° 0 mm 2 m/s 756 mmHg 66%
    07:00 +25°C° 0 mm 3 m/s 756 mmHg 62%
    08:00 +26°C° 0 mm 3 m/s 756 mmHg 58%
    09:00 +28°C° 0 mm 3 m/s 756 mmHg 54%
    10:00 +29°C° 0 mm 3 m/s 756 mmHg 50%
    11:00 +30°C° 0 mm 3 m/s 756 mmHg 46%
    12:00 +32°C° 0 mm 4 m/s 756 mmHg 42%
    13:00 +33°C° 0 mm 4 m/s 756 mmHg 41%
    14:00 +33°C° 0 mm 3 m/s 755 mmHg 40%
    15:00 +33°C° 0 mm 3 m/s 755 mmHg 38%
    16:00 +33°C° 0 mm 3 m/s 755 mmHg 42%
    17:00 +31°C° 0 mm 3 m/s 755 mmHg 45%
    18:00 +31°C° 0 mm 2 m/s 755 mmHg 49%
    19:00 +29°C° 0 mm 2 m/s 756 mmHg 51%
    20:00 +27°C° 0 mm 3 m/s 756 mmHg 53%
    21:00 +26°C° 0 mm 3 m/s 756 mmHg 56%
    22:00 +25°C° 0 mm 3 m/s 756 mmHg 57%
    23:00 +24°C° 0 mm 3 m/s 756 mmHg 59%

    Mâine, 25 Iunie, Luni

    Timp Temperatura Precipitaţii Vânt Presiune Umiditate
    00:00 +24°C° 0 mm 3 m/s 756 mmHg 61%
    01:00 +22°C° 0 mm 3 m/s 757 mmHg 62%
    02:00 +23°C° 0 mm 2 m/s 757 mmHg 64%
    03:00 +21°C° 0 mm 2 m/s 757 mmHg 65%
    04:00 +23°C° 0 mm 2 m/s 757 mmHg 66%
    05:00 +23°C° 0 mm 2 m/s 757 mmHg 67%
    06:00 +24°C° 0 mm 2 m/s 757 mmHg 68%
    07:00 +26°C° 0 mm 2 m/s 757 mmHg 63%
    08:00 +27°C° 0 mm 3 m/s 758 mmHg 59%
    09:00 +29°C° 0 mm 3 m/s 758 mmHg 54%
    10:00 +30°C° 0 mm 3 m/s 758 mmHg 50%
    11:00 +31°C° 0 mm 3 m/s 758 mmHg 46%
    12:00 +34°C° 0 mm 3 m/s 758 mmHg 41%
    13:00 +34°C° 0 mm 3 m/s 758 mmHg 39%
    14:00 +35°C° 0 mm 3 m/s 758 mmHg 37%
    15:00 +35°C° 0 mm 3 m/s 757 mmHg 34%
    16:00 +35°C° 0 mm 3 m/s 757 mmHg 39%
    17:00 +34°C° 0 mm 3 m/s 758 mmHg 43%
    18:00 +34°C° 0 mm 3 m/s 758 mmHg 48%
    19:00 +30°C° 0 mm 2 m/s 758 mmHg 54%
    20:00 +28°C° 0 mm 2 m/s 758 mmHg 60%
    21:00 +26°C° 0 mm 2 m/s 758 mmHg 66%
    22:00 +25°C° 0 mm 2 m/s 758 mmHg 68%
    23:00 +25°C° 0 mm 2 m/s 758 mmHg 69%

    Poimâine, 26 Iunie, Marţi

    Timp Temperatura Precipitaţii Vânt Presiune Umiditate
    00:00 +24°C° 0 mm 1 m/s 759 mmHg 71%
    01:00 +24°C° 0 mm 1 m/s 759 mmHg 70%
    02:00 +23°C° 0 mm 1 m/s 759 mmHg 70%
    03:00 +23°C° 0 mm 1 m/s 759 mmHg 69%
    04:00 +24°C° 0 mm 1 m/s 759 mmHg 68%
    05:00 +24°C° 0 mm 1 m/s 759 mmHg 67%
    06:00 +25°C° 0 mm 1 m/s 759 mmHg 65%
    07:00 +27°C° 0 mm 2 m/s 759 mmHg 60%
    08:00 +29°C° 0 mm 2 m/s 759 mmHg 56%
    09:00 +30°C° 0 mm 3 m/s 759 mmHg 51%
    10:00 +31°C° 0 mm 3 m/s 759 mmHg 48%
    11:00 +33°C° 0 mm 3 m/s 759 mmHg 45%
    12:00 +35°C° 0 mm 3 m/s 759 mmHg 42%
    13:00 +35°C° 0 mm 3 m/s 759 mmHg 41%
    14:00 +35°C° 0 mm 3 m/s 758 mmHg 41%
    15:00 +35°C° 0 mm 3 m/s 758 mmHg 40%
    16:00 +35°C° 0 mm 3 m/s 758 mmHg 43%
    17:00 +34°C° 0 mm 3 m/s 758 mmHg 47%
    18:00 +34°C° 0 mm 3 m/s 758 mmHg 50%
    19:00 +31°C° 0 mm 2 m/s 758 mmHg 54%
    20:00 +29°C° 0 mm 2 m/s 758 mmHg 58%
    21:00 +27°C° 0 mm 2 m/s 759 mmHg 61%
    22:00 +27°C° 0 mm 2 m/s 758 mmHg 65%
    23:00 +26°C° 0 mm 2 m/s 758 mmHg 69%

    27 Iunie, Miercuri

    Timp Temperatura Precipitaţii Vânt Presiune Umiditate
    00:00 +25°C° 0 mm 2 m/s 758 mmHg 73%
    01:00 +25°C° 0 mm 2 m/s 758 mmHg 76%
    02:00 +24°C° 0 mm 2 m/s 758 mmHg 79%
    03:00 +23°C° 0 mm 2 m/s 758 mmHg 82%
    04:00 +24°C° 0 mm 2 m/s 758 mmHg 82%
    05:00 +25°C° 0 mm 3 m/s 758 mmHg 81%
    06:00 +25°C° 0 mm 3 m/s 758 mmHg 80%
    07:00 +27°C° 0,1 mm 3 m/s 758 mmHg 76%
    08:00 +28°C° 0,1 mm 3 m/s 758 mmHg 72%
    09:00 +30°C° 0,1 mm 3 m/s 758 mmHg 68%
    10:00 +31°C° 0,1 mm 3 m/s 758 mmHg 63%
    11:00 +33°C° 0,1 mm 3 m/s 758 mmHg 58%
    12:00 +34°C° 0,1 mm 3 m/s 758 mmHg 53%
    13:00 +34°C° 0,8 mm 3 m/s 758 mmHg 52%
    14:00 +34°C° 0,8 mm 3 m/s 758 mmHg 52%
    15:00 +34°C° 0,8 mm 3 m/s 758 mmHg 52%
    16:00 +33°C° 0 mm 3 m/s 758 mmHg 56%
    17:00 +33°C° 0 mm 3 m/s 758 mmHg 60%
    18:00 +31°C° 0 mm 3 m/s 757 mmHg 64%
    19:00 +29°C° 0 mm 3 m/s 758 mmHg 69%
    20:00 +28°C° 0 mm 3 m/s 758 mmHg 74%
    21:00 +26°C° 0 mm 3 m/s 758 mmHg 79%
    22:00 +26°C° 0 mm 3 m/s 758 mmHg 81%
    23:00 +25°C° 0 mm 3 m/s 758 mmHg 83%

    28 Iunie, Joi

    Timp Temperatura Precipitaţii Vânt Presiune Umiditate
    00:00 +24°C° 0 mm 3 m/s 758 mmHg 85%
    01:00 +24°C° 0,5 mm 2 m/s 758 mmHg 87%
    02:00 +24°C° 0,5 mm 2 m/s 759 mmHg 89%
    03:00 +23°C° 0,5 mm 2 m/s 759 mmHg 91%
    04:00 +24°C° 0 mm 2 m/s 759 mmHg 89%
    05:00 +24°C° 0 mm 2 m/s 759 mmHg 87%
    06:00 +25°C° 0 mm 2 m/s 759 mmHg 85%
    07:00 +27°C° 0,2 mm 2 m/s 759 mmHg 79%
    08:00 +28°C° 0,2 mm 3 m/s 759 mmHg 72%
    09:00 +30°C° 0,2 mm 3 m/s 759 mmHg 66%
    10:00 +30°C° 0 mm 3 m/s 759 mmHg 61%
    11:00 +31°C° 0 mm 2 m/s 759 mmHg 56%
    12:00 +32°C° 0 mm 2 m/s 759 mmHg 51%
    13:00 +34°C° 0 mm 2 m/s 758 mmHg 50%
    14:00 +34°C° 0 mm 2 m/s 758 mmHg 48%
    15:00 +34°C° 0 mm 3 m/s 758 mmHg 47%
    16:00 +33°C° 0 mm 3 m/s 758 mmHg 51%
    17:00 +33°C° 0 mm 3 m/s 758 mmHg 56%
    18:00 +31°C° 0 mm 3 m/s 758 mmHg 60%
    19:00 +29°C° 0 mm 3 m/s 758 mmHg 66%
    20:00 +27°C° 0 mm 3 m/s 759 mmHg 71%
    21:00 +26°C° 0 mm 3 m/s 759 mmHg 77%
    22:00 +25°C° 0 mm 3 m/s 759 mmHg 78%
    23:00 +24°C° 0 mm 3 m/s 759 mmHg 80%

    29 Iunie, Vineri

    Timp Temperatura Precipitaţii Vânt Presiune Umiditate
    00:00 +24°C° 0 mm 3 m/s 759 mmHg 82%
    01:00 +22°C° 0 mm 3 m/s 759 mmHg 82%
    02:00 +21°C° 0 mm 3 m/s 759 mmHg 82%
    03:00 +21°C° 0 mm 3 m/s 759 mmHg 82%
    04:00 +21°C° 0 mm 3 m/s 759 mmHg 80%
    05:00 +22°C° 0 mm 4 m/s 759 mmHg 78%
    06:00 +22°C° 0 mm 4 m/s 759 mmHg 76%
    07:00 +25°C° 0 mm 4 m/s 759 mmHg 71%
    08:00 +26°C° 0 mm 4 m/s 759 mmHg 66%
    09:00 +28°C° 0 mm 4 m/s 759 mmHg 61%
    10:00 +29°C° 0 mm 4 m/s 759 mmHg 57%
    11:00 +30°C° 0 mm 4 m/s 759 mmHg 52%
    12:00 +32°C° 0 mm 4 m/s 758 mmHg 47%
    13:00 +32°C° 0 mm 4 m/s 758 mmHg 46%
    14:00 +32°C° 0 mm 4 m/s 758 mmHg 44%
    15:00 +33°C° 0 mm 4 m/s 758 mmHg 43%
    16:00 +32°C° 0 mm 4 m/s 758 mmHg 47%
    17:00 +30°C° 0 mm 4 m/s 758 mmHg 51%
    18:00 +30°C° 0 mm 3 m/s 758 mmHg 55%
    19:00 +28°C° 0 mm 4 m/s 758 mmHg 58%
    20:00 +26°C° 0 mm 4 m/s 758 mmHg 61%
    21:00 +23°C° 0 mm 4 m/s 758 mmHg 65%
    22:00 +22°C° 0 mm 4 m/s 758 mmHg 68%
    23:00 +22°C° 0 mm 4 m/s 758 mmHg 71%
    Arată mai mult